User: anonymous   Login
Location: *
(49.3500°N, 12.6000°E)
Time: 18:29:36
(UTC+00:00)
Language:

Ariane Rocket - Orbit

View from above orbital plane
View from above orbital plane
View from above satellite
View from above satellite

Ground track
Ground track

The orbit data is extracted from the following two-line orbital elements,

1 23561U 95021B   19345.83614861  .00000027  00000-0  24113-4 0  9997
2 23561  98.7490  16.8884 0007974  93.8295  79.6426 14.37947198291687
Epoch (UTC): 11 December 2019 20:04:03
Eccentricity: 0.0007974
inclination: 98.7490°
perigee height: 759 km
apogee height: 771 km
right ascension of ascending node: 16.8884°
argument of perigee: 93.8295°
revolutions per day: 14.37947198
mean anomaly at epoch: 79.6426°
orbit number at epoch: 29168

The dashed part of the orbit path shows where the satellite is in the earth's shadow,  

DLR